P/2019 U4 ( PanSTARRS )

Japanese version
Home page
Updated on November 9, 2019

---------------------------------------------------------------------

* Profile

Discovery Date October 25, 2019
Magnitude 21.1 mag
Discoverer Pan-STARRS 1 telescope (Haleakala)

* Orbital Elements

Epoch 2019 Oct. 4.0 TT = JDT 2458760.5
T 2019 Sept. 18.34167 TT                                Williams
q   1.8470330            (2000.0)            P               Q
n   0.14928492     Peri.  180.95132     +0.93375699     -0.35110739
a   3.5193199      Node   200.03932     +0.32969760     +0.91931113
e   0.4751733      Incl.   11.69126     +0.13927444     +0.17773758
P   6.60
From 42 observations 2019 Sept. 24-Oct. 28, mean residual 0".5.

* Magnitudes Graph

        m1 = 18.0 + 5 log d + 10.0 log r

---------------------------------------------------------------------

The orbital elements are published on M.P.E.C. 2019-V116.
The magnitudes graphs are made with Comet for Windows.

---------------------------------------------------------------------

Copyright(C) Seiichi Yoshida (comet@aerith.net). All rights reserved.